This demonstration page uses our WeatherBlox Daily Observations layout. Learn more.

Hourly Observations for January 3, 2020

Temp ( °F °C ) Dew Point ( °F °C ) Humidity (%) Winds ( mph kmh ) Pressure ( in mb ) Visibility ( mi km ) Precip ( " mm )
12:15 am 00:15 Cloudy 48 9 37 3 66 66 SSW 7 11 29.87 1011 10 16.0934 0 0
12:35 am 00:35 Cloudy 48 9 36 2 62 62 SSW 8 13 29.86 1011 10 16.0934 0 0
12:55 am 00:55 Cloudy 48 9 36 2 62 62 SSW 9 15 29.86 1011 10 16.0934 0 0
1:35 am 01:35 Cloudy 46 8 37 3 71 71 SSW 9 15 29.85 1011 10 16.0934 0 0
1:55 am 01:55 Cloudy 46 8 37 3 71 71 SSW 7 11 29.86 1011 10 16.0934 0 0
2:15 am 02:15 Cloudy 46 8 41 5 82 82 SSW 10 17 29.85 1011 10 16.0934 0 0
2:35 am 02:35 Cloudy 46 8 41 5 82 82 SSW 10 17 29.86 1011 10 16.0934 0 0
2:55 am 02:55 Cloudy 45 7 41 5 87 87 S 9 15 29.86 1011 10 16.0934 0 0
3:35 am 03:35 Cloudy 45 7 43 6 93 93 SSW 8 13 29.86 1011 10 16.0934 0 0
3:55 am 03:55 Cloudy 43 6 43 6 100 100 S 7 11 29.84 1011 10 16.0934 0 0
4:15 am 04:15 Cloudy 43 6 43 6 100 100 S 9 15 29.85 1011 10 16.0934 0 0
4:35 am 04:35 Cloudy 43 6 43 6 100 100 SSW 7 11 29.85 1011 7 11.26538 0 0
4:55 am 04:55 Cloudy 43 6 43 6 100 100 S 6 9 29.84 1011 7 11.26538 0 0
5:15 am 05:15 Cloudy 43 6 43 6 100 100 S 5 7 29.83 1010 10 16.0934 0 0
5:55 am 05:55 Cloudy 43 6 43 6 100 100 SSW 3 6 29.84 1011 10 16.0934 0 0
6:15 am 06:15 Cloudy 43 6 43 6 100 100 Calm 29.83 1010 10 16.0934 0 0
6:35 am 06:35 Cloudy 43 6 43 6 100 100 Calm 29.82 1010 10 16.0934 0 0
6:55 am 06:55 Cloudy 43 6 43 6 100 100 Calm 29.82 1010 10 16.0934 0 0
7:15 am 07:15 Cloudy 41 5 41 5 100 100 Calm 29.82 1010 7 11.26538 0 0
7:35 am 07:35 Cloudy 43 6 43 6 100 100 Calm 29.82 1010 10 16.0934 0 0
7:55 am 07:55 Mostly Cloudy 41 5 41 5 100 100 SSW 3 6 29.84 1011 7 11.26538 0 0
8:15 am 08:15 Cloudy 41 5 41 5 100 100 Calm 29.85 1011 7 11.26538 0 0
8:35 am 08:35 Cloudy 43 6 43 6 100 100 Calm 29.88 1012 7 11.26538 0 0
8:55 am 08:55 Cloudy 43 6 43 6 100 100 Calm 29.87 1012 5 8.0467 0 0
9:15 am 09:15 Cloudy 43 6 43 6 100 100 Calm 29.85 1011 7 11.26538 0 0
9:35 am 09:35 Mostly Cloudy 43 6 43 6 100 100 SSE 6 9 29.85 1011 10 16.0934 0 0
9:55 am 09:55 Cloudy 43 6 43 6 100 100 S 5 7 29.86 1011 10 16.0934 0 0
10:15 am 10:15 Cloudy 43 6 43 6 100 100 SW 3 6 29.86 1011 10 16.0934 0 0
10:35 am 10:35 Cloudy 45 7 45 7 100 100 SW 5 7 29.86 1011 10 16.0934 0 0
10:55 am 10:55 Cloudy 45 7 45 7 100 100 WSW 5 7 29.86 1011 10 16.0934 0 0
11:15 am 11:15 Cloudy 45 7 45 7 100 100 S 5 7 29.84 1011 10 16.0934 0 0
11:35 am 11:35 Cloudy 45 7 45 7 100 100 Calm 29.83 1010 10 16.0934 0 0
11:55 am 11:55 Cloudy 45 7 45 7 100 100 Calm 29.81 1010 10 16.0934 0 0
12:15 pm 12:15 Cloudy 45 7 45 7 100 100 SW 3 6 29.82 1010 10 16.0934 0 0
12:35 pm 12:35 Cloudy 45 7 45 7 100 100 Calm 29.81 1010 10 16.0934 0 0
12:55 pm 12:55 Cloudy 46 8 46 8 100 100 SSW 3 6 29.84 1010 10 16.0934 0 0
1:15 pm 13:15 Cloudy 46 8 46 8 100 100 Calm 29.84 1010 10 16.0934 0 0
1:35 pm 13:35 Mostly Cloudy 46 8 46 8 100 100 S 5 7 29.81 1009 10 16.0934 0 0
1:55 pm 13:55 Mostly Cloudy 46 8 46 8 100 100 Calm 29.82 1010 10 16.0934 0 0
2:15 pm 14:15 Cloudy 46 8 46 8 100 100 Calm 29.81 1009 10 16.0934 0 0
2:35 pm 14:35 Mostly Cloudy 46 8 46 8 100 100 Calm 29.81 1009 10 16.0934 0 0
2:55 pm 14:55 Mostly Cloudy 46 8 46 8 100 100 Calm 29.81 1009 10 16.0934 0 0
3:15 pm 15:15 Cloudy 46 8 46 8 100 100 NNW 3 6 29.83 1010 10 16.0934 0 0
3:35 pm 15:35 Cloudy 46 8 46 8 100 100 Calm 29.84 1010 10 16.0934 0 0
3:55 pm 15:55 Cloudy 46 8 46 8 100 100 Calm 29.83 1010 10 16.0934 0 0
4:15 pm 16:15 Cloudy 46 8 46 8 100 100 Calm 29.81 1009 10 16.0934 0 0
4:35 pm 16:35 Mostly Cloudy 45 7 45 7 100 100 Calm 29.84 1011 7 11.26538 0 0
4:55 pm 16:55 Cloudy 45 7 45 7 100 100 Calm 29.83 1010 10 16.0934 0 0
5:15 pm 17:15 Cloudy 46 8 46 8 100 100 Calm 29.82 1010 7 11.26538 0 0
5:35 pm 17:35 Cloudy 45 7 45 7 100 100 Calm 29.84 1011 7 11.26538 0 0
5:55 pm 17:55 Cloudy 45 7 45 7 100 100 Calm 29.83 1010 7 11.26538 0 0
6:15 pm 18:15 Mostly Cloudy 45 7 45 7 100 100 Calm 29.81 1010 5 8.0467 0 0
6:35 pm 18:35 Mostly Cloudy 45 7 45 7 100 100 NW 3 6 29.84 1011 5 8.0467 0 0
6:55 pm 18:55 Cloudy 45 7 45 7 100 100 N 5 7 29.85 1011 3 4.82802 0 0
7:15 pm 19:15 Cloudy 45 7 45 7 100 100 Calm 29.82 1010 4 6.43736 0 0
7:35 pm 19:35 Cloudy 45 7 45 7 100 100 Calm 29.83 1010 2.5 4.02335 0 0
7:55 pm 19:55 Cloudy 45 7 45 7 100 100 Calm 29.86 1011 1.75 2.816345 0 0
8:15 pm 20:15 Cloudy 45 7 45 7 100 100 N 3 6 29.87 1012 2.5 4.02335 0 0
8:35 pm 20:35 Cloudy 45 7 45 7 100 100 Calm 29.86 1011 2.5 4.02335 0 0
8:55 pm 20:55 Cloudy 45 7 45 7 100 100 E 3 6 29.83 1010 2 3.21868 0 0
9:15 pm 21:15 Cloudy 45 7 45 7 100 100 ENE 3 6 29.82 1010 1.5 2.41401 0 0
9:35 pm 21:35 Cloudy 45 7 45 7 100 100 NNE 5 7 29.82 1010 1.5 2.41401 0 0
9:55 pm 21:55 Cloudy 45 7 45 7 100 100 N 3 6 29.83 1010 1.25 2.011675 0 0
10:15 pm 22:15 Cloudy 45 7 45 7 100 100 Calm 29.81 1010 0.75 1.207005 0 0
10:35 pm 22:35 Cloudy 45 7 45 7 100 100 Calm 29.81 1010 0.5 0.80467 0 0
10:55 pm 22:55 Cloudy 45 7 45 7 100 100 Calm 29.8 1009 0.5 0.80467 0 0
11:15 pm 23:15 Cloudy 45 7 45 7 100 100 Calm 29.8 1009 0.5 0.80467 0 0
11:35 pm 23:35 Cloudy 45 7 45 7 100 100 Calm 29.81 1010 0.25 0.402335 0 0
11:55 pm 23:55 Cloudy 45 7 45 7 100 100 ESE 5 7 29.77 1008 0.25 0.402335 0 0

Powered by AerisWeather